| time (UTC) | temp F | wind direction | speed MPH | gust MPH | rain 1hr in | rain 24hr in | rain mn in | humidity % | barometer mb |
| 20260506045040 | 38 | 0.0 | 0.0 | 0.00 | 0.00 | 0.00 | 69 | 1009.9 | |
| 20260506044517 | 38 | 300 | 0.0 | 2.0 | 0.00 | 0.00 | 0.00 | 70 | 1009.9 |
| 20260506044034 | 38 | 0.0 | 0.0 | 0.00 | 0.00 | 0.00 | 70 | 1009.9 | |
| 20260506043532 | 38 | 0.0 | 0.0 | 0.00 | 0.00 | 0.00 | 69 | 1009.9 | |
| 20260506043031 | 38 | 0.0 | 0.0 | 0.00 | 0.00 | 0.00 | 68 | 1010.0 | |
| 20260506042529 | 38 | 0.0 | 0.0 | 0.00 | 0.00 | 0.00 | 69 | 1009.9 | |
| 20260506042027 | 39 | 299 | 0.0 | 1.0 | 0.00 | 0.00 | 0.00 | 69 | 1009.9 |
| 20260506041525 | 39 | 0.0 | 0.0 | 0.00 | 0.00 | 0.00 | 69 | 1009.9 | |
| 20260506041104 | 39 | 0.0 | 0.0 | 0.00 | 0.00 | 0.00 | 67 | 1009.8 | |
| 20260506040522 | 40 | 0.0 | 0.0 | 0.00 | 0.00 | 0.00 | 66 | 1009.9 | |
| 20260506040020 | 40 | 0.0 | 0.0 | 0.00 | 0.00 | 0.00 | 67 | 1009.9 | |
| 20260506035519 | 40 | 300 | 0.0 | 1.0 | 0.00 | 0.00 | 0.00 | 66 | 1009.9 |
| 20260506035016 | 41 | 299 | 0.0 | 2.0 | 0.00 | 0.00 | 0.00 | 66 | 1009.9 |
| 20260506034554 | 41 | 0.0 | 0.0 | 0.00 | 0.00 | 0.00 | 65 | 1009.8 | |
| 20260506034032 | 42 | 0.0 | 0.0 | 0.00 | 0.00 | 0.00 | 61 | 1009.8 | |
| 20260506033531 | 42 | 0.0 | 0.0 | 0.00 | 0.00 | 0.00 | 61 | 1009.7 | |
| 20260506033028 | 42 | 0.0 | 0.0 | 0.00 | 0.00 | 0.00 | 62 | 1009.7 | |
| 20260506032527 | 42 | 0.0 | 0.0 | 0.00 | 0.00 | 0.00 | 63 | 1009.7 | |
| 20260506032025 | 43 | 292 | 0.0 | 1.0 | 0.00 | 0.00 | 0.00 | 62 | 1009.7 |
| 20260506031523 | 43 | 0.0 | 0.0 | 0.00 | 0.00 | 0.00 | 61 | 1009.7 | |
| 20260506031021 | 43 | 292 | 0.0 | 1.0 | 0.00 | 0.00 | 0.00 | 61 | 1009.8 |
| 20260506030519 | 43 | 293 | 0.0 | 1.0 | 0.00 | 0.00 | 0.00 | 60 | 1009.7 |
| 20260506030018 | 43 | 293 | 0.0 | 1.0 | 0.00 | 0.00 | 0.00 | 61 | 1009.7 |
| 20260506025535 | 43 | 292 | 0.0 | 1.0 | 0.00 | 0.00 | 0.00 | 61 | 1009.7 |
| 20260506025052 | 44 | 292 | 0.0 | 1.0 | 0.00 | 0.00 | 0.00 | 58 | 1009.6 |
| 20260506024530 | 44 | 292 | 0.0 | 1.0 | 0.00 | 0.00 | 0.00 | 59 | 1009.6 |
| 20260506024028 | 44 | 0.0 | 0.0 | 0.00 | 0.00 | 0.00 | 58 | 1009.5 | |
| 20260506023526 | 44 | 0.0 | 0.0 | 0.00 | 0.00 | 0.00 | 58 | 1009.5 | |
| 20260506023025 | 44 | 292 | 0.0 | 1.0 | 0.00 | 0.00 | 0.00 | 56 | 1009.4 |
| 20260506022522 | 44 | 292 | 0.0 | 1.0 | 0.00 | 0.00 | 0.00 | 55 | 1009.3 |
| 20260506022021 | 44 | 0.0 | 0.0 | 0.00 | 0.00 | 0.00 | 55 | 1009.3 | |
| 20260506021519 | 44 | 0.0 | 0.0 | 0.00 | 0.00 | 0.00 | 53 | 1009.2 | |
| 20260506021017 | 45 | 0.0 | 0.0 | 0.00 | 0.00 | 0.00 | 53 | 1009.2 | |
| 20260506020554 | 45 | 0.0 | 0.0 | 0.00 | 0.00 | 0.00 | 52 | 1009.1 | |
| 20260506020032 | 45 | 0.0 | 0.0 | 0.00 | 0.00 | 0.00 | 51 | 1009.0 | |
| 20260506015550 | 45 | 0.0 | 0.0 | 0.00 | 0.00 | 0.00 | 51 | 1009.1 | |
| 20260506015028 | 46 | 0.0 | 0.0 | 0.00 | 0.00 | 0.00 | 49 | 1008.8 | |
| 20260506014526 | 46 | 0.0 | 0.0 | 0.00 | 0.00 | 0.00 | 49 | 1008.8 | |
| 20260506014044 | 46 | 0.0 | 0.0 | 0.00 | 0.00 | 0.00 | 47 | 1008.9 | |
| 20260506013523 | 47 | 0.0 | 0.0 | 0.00 | 0.00 | 0.00 | 46 | 1008.9 | |
| 20260506013021 | 47 | 292 | 0.0 | 2.0 | 0.00 | 0.00 | 0.00 | 45 | 1008.8 |
| 20260506012519 | 47 | 292 | 0.0 | 6.0 | 0.00 | 0.00 | 0.00 | 44 | 1008.8 |
| 20260506012017 | 48 | 306 | 0.0 | 1.0 | 0.00 | 0.00 | 0.00 | 43 | 1008.8 |
| 20260506011534 | 48 | 304 | 0.0 | 2.0 | 0.00 | 0.00 | 0.00 | 43 | 1008.6 |
| 20260506011032 | 48 | 297 | 0.0 | 1.0 | 0.00 | 0.00 | 0.00 | 43 | 1008.7 |
| 20260506010530 | 49 | 297 | 0.0 | 2.0 | 0.00 | 0.00 | 0.00 | 42 | 1008.7 |
| 20260506010028 | 49 | 298 | 0.0 | 2.0 | 0.00 | 0.00 | 0.00 | 42 | 1008.5 |
| 20260506005546 | 49 | 308 | 1.0 | 3.0 | 0.00 | 0.00 | 0.00 | 41 | 1008.5 |
| 20260506005024 | 50 | 300 | 2.0 | 4.0 | 0.00 | 0.00 | 0.00 | 41 | 1008.5 |
| 20260506004522 | 50 | 304 | 1.0 | 6.0 | 0.00 | 0.00 | 0.00 | 41 | 1008.4 |
| 20260506004020 | 50 | 320 | 1.0 | 2.0 | 0.00 | 0.00 | 0.00 | 40 | 1008.4 |
| 20260506003518 | 50 | 319 | 1.0 | 3.0 | 0.00 | 0.00 | 0.00 | 40 | 1008.4 |
| 20260506003016 | 50 | 302 | 3.0 | 8.0 | 0.00 | 0.00 | 0.00 | 41 | 1008.4 |
| 20260506002533 | 50 | 279 | 2.0 | 6.0 | 0.00 | 0.00 | 0.00 | 40 | 1008.3 |
| 20260506002051 | 50 | 295 | 1.0 | 6.0 | 0.00 | 0.00 | 0.00 | 40 | 1008.2 |
| 20260506001529 | 50 | 293 | 0.0 | 4.0 | 0.00 | 0.00 | 0.00 | 40 | 1008.2 |
| 20260506001027 | 50 | 302 | 0.0 | 1.0 | 0.00 | 0.00 | 0.00 | 40 | 1008.2 |
| 20260506000525 | 50 | 302 | 1.0 | 3.0 | 0.00 | 0.00 | 0.00 | 40 | 1008.2 |
| 20260506000043 | 50 | 300 | 0.0 | 1.0 | 0.00 | 0.00 | 0.00 | 39 | 1008.1 |
| 20260505235542 | 50 | 296 | 2.0 | 6.0 | 0.00 | 0.00 | 0.00 | 39 | 1008.1 |
| 20260505235020 | 51 | 291 | 1.0 | 3.0 | 0.00 | 0.00 | 0.00 | 38 | 1008.2 |
| 20260505234518 | 51 | 290 | 1.0 | 6.0 | 0.00 | 0.00 | 0.00 | 38 | 1008.2 |
| 20260505234035 | 51 | 311 | 3.0 | 11.0 | 0.00 | 0.00 | 0.00 | 38 | 1008.2 |
| 20260505233533 | 51 | 282 | 2.0 | 6.0 | 0.00 | 0.00 | 0.00 | 38 | 1008.1 |
| 20260505233031 | 51 | 289 | 2.0 | 6.0 | 0.00 | 0.00 | 0.00 | 38 | 1008.1 |
| 20260505232549 | 51 | 316 | 1.0 | 3.0 | 0.00 | 0.00 | 0.00 | 38 | 1008.1 |
| 20260505232028 | 51 | 308 | 2.0 | 6.0 | 0.00 | 0.00 | 0.00 | 37 | 1008.2 |
| 20260505231526 | 51 | 305 | 2.0 | 8.0 | 0.00 | 0.00 | 0.00 | 38 | 1008.2 |
| 20260505231024 | 51 | 294 | 2.0 | 7.0 | 0.00 | 0.00 | 0.00 | 37 | 1008.1 |
| 20260505230522 | 51 | 305 | 2.0 | 7.0 | 0.00 | 0.00 | 0.00 | 38 | 1008.1 |
| 20260505230101 | 51 | 324 | 2.0 | 7.0 | 0.00 | 0.00 | 0.00 | 38 | 1008.2 |
| 20260505225519 | 52 | 305 | 2.0 | 4.0 | 0.00 | 0.00 | 0.00 | 38 | 1008.2 |
| 20260505225016 | 52 | 303 | 2.0 | 11.0 | 0.00 | 0.00 | 0.00 | 37 | 1008.2 |
| 20260505224534 | 52 | 335 | 3.0 | 6.0 | 0.00 | 0.00 | 0.00 | 37 | 1008.2 |
| 20260505224032 | 52 | 304 | 2.0 | 6.0 | 0.00 | 0.00 | 0.00 | 37 | 1008.3 |
| 20260505223530 | 52 | 306 | 3.0 | 10.0 | 0.00 | 0.00 | 0.00 | 37 | 1008.3 |
| 20260505223048 | 52 | 299 | 3.0 | 6.0 | 0.00 | 0.00 | 0.00 | 37 | 1008.2 |
| 20260505222527 | 52 | 293 | 3.0 | 7.0 | 0.00 | 0.00 | 0.00 | 37 | 1008.2 |
| 20260505222025 | 52 | 322 | 2.0 | 6.0 | 0.00 | 0.00 | 0.00 | 37 | 1008.2 |
| 20260505221523 | 52 | 310 | 3.0 | 11.0 | 0.00 | 0.00 | 0.00 | 37 | 1008.3 |
| 20260505221021 | 52 | 292 | 2.0 | 6.0 | 0.00 | 0.00 | 0.00 | 37 | 1008.0 |
| 20260505220520 | 52 | 326 | 1.0 | 4.0 | 0.00 | 0.00 | 0.00 | 37 | 1008.0 |
| 20260505220018 | 52 | 278 | 2.0 | 3.0 | 0.00 | 0.00 | 0.00 | 36 | 1008.2 |
| 20260505215555 | 52 | 314 | 3.0 | 8.0 | 0.00 | 0.00 | 0.00 | 36 | 1008.3 |
| 20260505215032 | 52 | 329 | 3.0 | 7.0 | 0.00 | 0.00 | 0.00 | 36 | 1008.2 |
| 20260505214530 | 52 | 315 | 3.0 | 8.0 | 0.00 | 0.00 | 0.00 | 36 | 1008.2 |
| 20260505214028 | 52 | 303 | 3.0 | 13.0 | 0.00 | 0.00 | 0.00 | 36 | 1008.2 |
| 20260505213526 | 53 | 10 | 2.0 | 4.0 | 0.00 | 0.00 | 0.00 | 36 | 1008.1 |
| 20260505213044 | 53 | 299 | 2.0 | 9.0 | 0.00 | 0.00 | 0.00 | 36 | 1008.2 |
| 20260505212522 | 53 | 309 | 2.0 | 7.0 | 0.00 | 0.00 | 0.00 | 36 | 1008.2 |
| 20260505212020 | 53 | 346 | 3.0 | 9.0 | 0.00 | 0.00 | 0.00 | 37 | 1008.2 |
| 20260505211518 | 53 | 283 | 2.0 | 8.0 | 0.00 | 0.00 | 0.00 | 36 | 1008.2 |
| 20260505211016 | 54 | 327 | 3.0 | 9.0 | 0.00 | 0.00 | 0.00 | 35 | 1008.2 |
| 20260505210553 | 54 | 320 | 3.0 | 10.0 | 0.00 | 0.00 | 0.00 | 36 | 1008.1 |
| 20260505210031 | 54 | 292 | 3.0 | 7.0 | 0.00 | 0.00 | 0.00 | 35 | 1008.2 |
| 20260505205529 | 54 | 260 | 3.0 | 7.0 | 0.00 | 0.00 | 0.00 | 36 | 1008.3 |
| 20260505205028 | 54 | 297 | 3.0 | 7.0 | 0.00 | 0.00 | 0.00 | 35 | 1008.2 |
| 20260505204526 | 54 | 327 | 3.0 | 8.0 | 0.00 | 0.00 | 0.00 | 35 | 1008.3 |
| 20260505204044 | 55 | 243 | 3.0 | 11.0 | 0.00 | 0.00 | 0.00 | 34 | 1008.4 |
| 20260505203522 | 56 | 322 | 3.0 | 10.0 | 0.00 | 0.00 | 0.00 | 33 | 1008.4 |
| 20260505203021 | 56 | 226 | 4.0 | 13.0 | 0.00 | 0.00 | 0.00 | 35 | 1008.3 |
| 20260505202519 | 55 | 307 | 4.0 | 11.0 | 0.00 | 0.00 | 0.00 | 35 | 1008.3 |
| 20260505202017 | 55 | 322 | 4.0 | 8.0 | 0.00 | 0.00 | 0.00 | 35 | 1008.3 |
| 20260505201555 | 55 | 294 | 4.0 | 10.0 | 0.00 | 0.00 | 0.00 | 33 | 1008.4 |
| 20260505201032 | 55 | 308 | 4.0 | 21.0 | 0.00 | 0.00 | 0.00 | 35 | 1008.3 |
| 20260505200531 | 55 | 312 | 4.0 | 13.0 | 0.00 | 0.00 | 0.00 | 35 | 1008.4 |
| 20260505200029 | 55 | 289 | 4.0 | 14.0 | 0.00 | 0.00 | 0.00 | 36 | 1008.4 |
| 20260505195527 | 55 | 259 | 4.0 | 15.0 | 0.00 | 0.00 | 0.00 | 35 | 1008.4 |
| 20260505195025 | 55 | 307 | 3.0 | 8.0 | 0.00 | 0.00 | 0.00 | 36 | 1008.4 |
| 20260505194524 | 54 | 329 | 3.0 | 14.0 | 0.00 | 0.00 | 0.00 | 35 | 1008.5 |
| 20260505194022 | 54 | 290 | 4.0 | 10.0 | 0.00 | 0.00 | 0.00 | 35 | 1008.5 |
| 20260505193520 | 55 | 314 | 4.0 | 14.0 | 0.00 | 0.00 | 0.00 | 33 | 1008.3 |
| 20260505193038 | 56 | 318 | 4.0 | 15.0 | 0.00 | 0.00 | 0.00 | 34 | 1008.3 |
| 20260505192516 | 56 | 294 | 3.0 | 11.0 | 0.00 | 0.00 | 0.00 | 35 | 1008.4 |
| 20260505192034 | 55 | 213 | 5.0 | 13.0 | 0.00 | 0.00 | 0.00 | 37 | 1008.5 |
| 20260505191552 | 54 | 295 | 3.0 | 8.0 | 0.00 | 0.00 | 0.00 | 37 | 1008.4 |
| 20260505191030 | 53 | 317 | 4.0 | 13.0 | 0.00 | 0.00 | 0.00 | 36 | 1008.5 |
| 20260505190548 | 52 | 299 | 5.0 | 11.0 | 0.00 | 0.00 | 0.00 | 36 | 1008.6 |
| 20260505190027 | 52 | 298 | 4.0 | 13.0 | 0.00 | 0.00 | 0.00 | 35 | 1008.6 |
| 20260505185525 | 52 | 291 | 2.0 | 10.0 | 0.00 | 0.00 | 0.00 | 36 | 1008.6 |
| 20260505185023 | 52 | 307 | 4.0 | 11.0 | 0.00 | 0.00 | 0.00 | 35 | 1008.6 |
| 20260505184521 | 53 | 281 | 2.0 | 8.0 | 0.00 | 0.00 | 0.00 | 36 | 1008.7 |
| 20260505184020 | 53 | 274 | 3.0 | 9.0 | 0.00 | 0.00 | 0.00 | 38 | 1008.7 |
| 20260505183518 | 53 | 274 | 3.0 | 10.0 | 0.00 | 0.00 | 0.00 | 37 | 1008.6 |
| 20260505183056 | 53 | 283 | 2.0 | 6.0 | 0.00 | 0.00 | 0.00 | 38 | 1008.5 |
| 20260505182533 | 53 | 301 | 4.0 | 10.0 | 0.00 | 0.00 | 0.00 | 37 | 1008.5 |
| 20260505182032 | 53 | 289 | 2.0 | 9.0 | 0.00 | 0.00 | 0.00 | 37 | 1008.6 |
| 20260505181530 | 53 | 326 | 3.0 | 11.0 | 0.00 | 0.00 | 0.00 | 36 | 1008.5 |
| 20260505181028 | 53 | 317 | 6.0 | 14.0 | 0.00 | 0.00 | 0.00 | 36 | 1008.6 |
| 20260505180546 | 53 | 265 | 4.0 | 16.0 | 0.00 | 0.00 | 0.00 | 39 | 1008.4 |
| 20260505180024 | 52 | 282 | 2.0 | 7.0 | 0.00 | 0.00 | 0.00 | 39 | 1008.4 |
| 20260505175543 | 52 | 318 | 2.0 | 7.0 | 0.00 | 0.00 | 0.00 | 38 | 1008.5 |
| 20260505175021 | 52 | 330 | 4.0 | 10.0 | 0.00 | 0.00 | 0.00 | 37 | 1008.4 |
| 20260505174539 | 52 | 311 | 3.0 | 10.0 | 0.00 | 0.00 | 0.00 | 37 | 1008.5 |
| 20260505174018 | 52 | 309 | 4.0 | 15.0 | 0.00 | 0.00 | 0.00 | 36 | 1008.5 |
| 20260505173529 | 53 | 287 | 4.0 | 8.0 | 0.00 | 0.00 | 0.00 | 37 | 1008.4 |
| 20260505173027 | 53 | 286 | 4.0 | 9.0 | 0.00 | 0.00 | 0.00 | 37 | 1008.5 |
| 20260505172525 | 52 | 308 | 3.0 | 9.0 | 0.00 | 0.00 | 0.00 | 38 | 1008.6 |
| 20260505172024 | 52 | 299 | 4.0 | 8.0 | 0.00 | 0.00 | 0.00 | 38 | 1008.5 |
| 20260505171522 | 52 | 285 | 3.0 | 9.0 | 0.00 | 0.00 | 0.00 | 37 | 1008.4 |
| 20260505171020 | 51 | 299 | 3.0 | 9.0 | 0.00 | 0.00 | 0.00 | 37 | 1008.5 |
| 20260505170519 | 52 | 319 | 5.0 | 15.0 | 0.00 | 0.00 | 0.00 | 35 | 1008.4 |
| 20260505170017 | 52 | 328 | 5.0 | 19.0 | 0.00 | 0.00 | 0.00 | 36 | 1008.4 |
| 20260505165554 | 53 | 310 | 3.0 | 9.0 | 0.00 | 0.00 | 0.00 | 37 | 1008.4 |
| 20260505165032 | 53 | 320 | 4.0 | 14.0 | 0.00 | 0.00 | 0.00 | 36 | 1008.6 |
| 20260505164530 | 53 | 327 | 4.0 | 9.0 | 0.00 | 0.00 | 0.00 | 38 | 1008.5 |
| 20260505164048 | 53 | 295 | 3.0 | 7.0 | 0.00 | 0.00 | 0.00 | 37 | 1008.5 |
| 20260505163547 | 52 | 312 | 5.0 | 15.0 | 0.00 | 0.00 | 0.00 | 37 | 1008.6 |
| 20260505163025 | 52 | 305 | 3.0 | 9.0 | 0.00 | 0.00 | 0.00 | 36 | 1008.7 |
| 20260505162523 | 52 | 296 | 5.0 | 13.0 | 0.00 | 0.00 | 0.00 | 38 | 1008.6 |
| 20260505162102 | 52 | 305 | 4.0 | 11.0 | 0.00 | 0.00 | 0.00 | 37 | 1008.7 |
| 20260505161520 | 52 | 320 | 4.0 | 9.0 | 0.00 | 0.00 | 0.00 | 37 | 1008.6 |
| 20260505161018 | 52 | 307 | 3.0 | 10.0 | 0.00 | 0.00 | 0.00 | 36 | 1008.7 |
| 20260505160516 | 52 | 291 | 3.0 | 9.0 | 0.00 | 0.00 | 0.00 | 38 | 1008.5 |
| 20260505153043 | 51 | 311 | 3.0 | 9.0 | 0.00 | 0.00 | 0.00 | 39 | 1008.2 |
| 20260505152521 | 50 | 250 | 3.0 | 8.0 | 0.00 | 0.00 | 0.00 | 41 | 1008.2 |
| 20260505152019 | 51 | 322 | 2.0 | 9.0 | 0.00 | 0.00 | 0.00 | 39 | 1008.3 |
| 20260505151518 | 51 | 311 | 2.0 | 7.0 | 0.00 | 0.00 | 0.00 | 41 | 1008.1 |
| 20260505151035 | 50 | 312 | 2.0 | 11.0 | 0.00 | 0.00 | 0.00 | 40 | 1008.1 |
| 20260505150533 | 50 | 337 | 2.0 | 7.0 | 0.00 | 0.00 | 0.00 | 40 | 1008.1 |
| 20260505140551 | 48 | 308 | 3.0 | 9.0 | 0.00 | 0.00 | 0.00 | 49 | 1008.4 |
| 20260505125023 | 40 | 327 | 1.0 | 3.0 | 0.00 | 0.00 | 0.00 | 63 | 1008.0 |
| 20260505124542 | 40 | 319 | 1.0 | 2.0 | 0.00 | 0.00 | 0.00 | 64 | 1008.0 |
| 20260505124020 | 39 | 317 | 0.0 | 1.0 | 0.00 | 0.00 | 0.00 | 64 | 1007.7 |
| 20260505123518 | 39 | 314 | 0.0 | 1.0 | 0.00 | 0.00 | 0.00 | 65 | 1007.7 |
| 20260505123016 | 39 | 325 | 1.0 | 4.0 | 0.00 | 0.00 | 0.00 | 65 | 1007.7 |
| 20260505122534 | 39 | 310 | 0.0 | 3.0 | 0.00 | 0.00 | 0.00 | 65 | 1007.6 |
| 20260505122032 | 38 | 327 | 0.0 | 1.0 | 0.00 | 0.00 | 0.00 | 66 | 1007.5 |
| 20260505121550 | 38 | 328 | 0.0 | 1.0 | 0.00 | 0.00 | 0.00 | 66 | 1007.5 |
| 20260505121028 | 38 | 327 | 0.0 | 3.0 | 0.00 | 0.00 | 0.00 | 67 | 1007.3 |
| 20260505120527 | 37 | 0.0 | 0.0 | 0.00 | 0.00 | 0.00 | 68 | 1007.3 | |
| 20260505120025 | 36 | 0.0 | 0.0 | 0.00 | 0.00 | 0.00 | 70 | 1007.1 | |
| 20260505115523 | 36 | 0.0 | 0.0 | 0.00 | 0.00 | 0.00 | 72 | 1007.1 | |
| 20260505115042 | 35 | 0.0 | 0.0 | 0.00 | 0.00 | 0.00 | 73 | 1006.8 | |
| 20260505114519 | 35 | 0.0 | 0.0 | 0.00 | 0.00 | 0.00 | 73 | 1006.8 | |
| 20260505114018 | 34 | 0.0 | 0.0 | 0.00 | 0.00 | 0.00 | 73 | 1006.6 | |
| 20260505113516 | 35 | 311 | 1.0 | 2.0 | 0.00 | 0.00 | 0.00 | 73 | 1006.5 |
| 20260505113033 | 34 | 295 | 1.0 | 3.0 | 0.00 | 0.00 | 0.00 | 73 | 1006.4 |
| 20260505112531 | 34 | 295 | 1.0 | 2.0 | 0.00 | 0.00 | 0.00 | 73 | 1006.3 |
| 20260505112030 | 34 | 299 | 1.0 | 3.0 | 0.00 | 0.00 | 0.00 | 72 | 1006.2 |
| 20260505111528 | 35 | 327 | 1.0 | 2.0 | 0.00 | 0.00 | 0.00 | 71 | 1006.2 |
| 20260505111026 | 36 | 327 | 0.0 | 2.0 | 0.00 | 0.00 | 0.00 | 70 | 1006.4 |
| 20260505110525 | 37 | 327 | 0.0 | 1.0 | 0.00 | 0.00 | 0.00 | 68 | 1006.3 |
| 20260505102027 | 39 | 0.0 | 0.0 | 0.00 | 0.00 | 0.00 | 62 | 1005.8 | |
| 20260505101525 | 39 | 0.0 | 0.0 | 0.00 | 0.00 | 0.00 | 62 | 1005.9 | |
| 20260505101024 | 39 | 322 | 0.0 | 2.0 | 0.00 | 0.00 | 0.00 | 62 | 1005.8 |
| 20260505100522 | 38 | 327 | 1.0 | 2.0 | 0.00 | 0.00 | 0.00 | 63 | 1005.7 |
| 20260505100021 | 38 | 324 | 1.0 | 6.0 | 0.00 | 0.00 | 0.00 | 63 | 1005.5 |
| 20260505095539 | 39 | 0.0 | 0.0 | 0.00 | 0.00 | 0.00 | 63 | 1005.5 | |
| 20260505095017 | 39 | 0.0 | 0.0 | 0.00 | 0.00 | 0.00 | 62 | 1005.4 | |
| 20260505094534 | 39 | 0.0 | 0.0 | 0.00 | 0.00 | 0.00 | 61 | 1005.5 | |
| 20260505094032 | 40 | 0.0 | 0.0 | 0.00 | 0.00 | 0.00 | 61 | 1005.4 | |
| 20260505093531 | 40 | 321 | 0.0 | 1.0 | 0.00 | 0.00 | 0.00 | 62 | 1005.3 |
| 20260505093029 | 40 | 321 | 1.0 | 2.0 | 0.00 | 0.00 | 0.00 | 61 | 1005.3 |
| 20260505092527 | 41 | 0.0 | 0.0 | 0.00 | 0.00 | 0.00 | 59 | 1005.2 | |
| 20260505092025 | 41 | 321 | 0.0 | 2.0 | 0.00 | 0.00 | 0.00 | 58 | 1005.3 |
| 20260505091524 | 41 | 321 | 1.0 | 2.0 | 0.00 | 0.00 | 0.00 | 57 | 1005.1 |
| 20260505091022 | 41 | 318 | 0.0 | 2.0 | 0.00 | 0.00 | 0.00 | 57 | 1005.2 |
| 20260505090520 | 42 | 312 | 0.0 | 1.0 | 0.00 | 0.00 | 0.00 | 57 | 1005.2 |
| 20260505090018 | 42 | 313 | 1.0 | 3.0 | 0.00 | 0.00 | 0.00 | 57 | 1005.1 |
| 20260505085517 | 42 | 292 | 0.0 | 3.0 | 0.00 | 0.00 | 0.00 | 58 | 1005.0 |
| 20260505085034 | 41 | 0.0 | 0.0 | 0.00 | 0.00 | 0.00 | 58 | 1005.0 | |
| 20260505084532 | 41 | 297 | 1.0 | 3.0 | 0.00 | 0.00 | 0.00 | 59 | 1005.0 |
| 20260505084030 | 41 | 296 | 1.0 | 3.0 | 0.00 | 0.00 | 0.00 | 60 | 1004.9 |
| 20260505083529 | 41 | 302 | 1.0 | 4.0 | 0.00 | 0.00 | 0.00 | 60 | 1004.7 |
| 20260505083027 | 41 | 306 | 0.0 | 2.0 | 0.00 | 0.00 | 0.00 | 61 | 1004.7 |
| 20260505082525 | 40 | 306 | 0.0 | 1.0 | 0.00 | 0.00 | 0.00 | 62 | 1004.7 |
| 20260505082024 | 40 | 0.0 | 0.0 | 0.00 | 0.00 | 0.00 | 63 | 1004.5 | |
| 20260505081522 | 40 | 306 | 0.0 | 1.0 | 0.00 | 0.00 | 0.00 | 64 | 1004.4 |
| 20260505081020 | 40 | 0.0 | 0.0 | 0.00 | 0.00 | 0.00 | 64 | 1004.4 | |
| 20260505080519 | 40 | 306 | 0.0 | 1.0 | 0.00 | 0.00 | 0.00 | 62 | 1004.2 |
| 20260505080037 | 40 | 0.0 | 0.0 | 0.00 | 0.00 | 0.00 | 61 | 1004.2 | |
| 20260505075534 | 40 | 0.0 | 0.0 | 0.00 | 0.00 | 0.00 | 63 | 1004.3 | |
| 20260505075032 | 41 | 0.0 | 0.0 | 0.00 | 0.00 | 0.00 | 63 | 1004.2 | |
| 20260505074530 | 41 | 0.0 | 0.0 | 0.00 | 0.00 | 0.00 | 62 | 1004.2 | |
| 20260505074029 | 41 | 0.0 | 0.0 | 0.00 | 0.00 | 0.00 | 62 | 1004.1 | |
| 20260505073527 | 41 | 0.0 | 0.0 | 0.00 | 0.00 | 0.00 | 62 | 1004.1 | |
| 20260505073025 | 42 | 0.0 | 0.0 | 0.00 | 0.00 | 0.00 | 59 | 1004.1 | |
| 20260505072523 | 43 | 0.0 | 0.0 | 0.00 | 0.00 | 0.00 | 58 | 1004.1 | |
| 20260505072022 | 43 | 0.0 | 0.0 | 0.00 | 0.00 | 0.00 | 55 | 1004.2 | |
| 20260505071520 | 43 | 0.0 | 0.0 | 0.00 | 0.00 | 0.00 | 52 | 1004.2 | |
| 20260505071019 | 43 | 0.0 | 0.0 | 0.00 | 0.00 | 0.00 | 53 | 1004.1 | |
| 20260505070517 | 43 | 0.0 | 0.0 | 0.00 | 0.00 | 0.00 | 54 | 1004.2 | |
| 20260505070034 | 44 | 0.0 | 0.0 | 0.00 | 0.00 | 0.00 | 53 | 1004.3 | |
| 20260505065532 | 44 | 0.0 | 0.0 | 0.00 | 0.00 | 0.00 | 52 | 1004.2 | |
| 20260505065030 | 44 | 0.0 | 0.0 | 0.00 | 0.00 | 0.00 | 51 | 1004.1 | |
| 20260505064529 | 44 | 0.0 | 0.0 | 0.00 | 0.00 | 0.00 | 51 | 1004.2 | |
| 20260505064047 | 44 | 0.0 | 0.0 | 0.00 | 0.00 | 0.00 | 50 | 1004.3 | |
| 20260505063525 | 45 | 306 | 0.0 | 1.0 | 0.00 | 0.00 | 0.00 | 50 | 1004.2 |
| 20260505063023 | 45 | 306 | 0.0 | 2.0 | 0.00 | 0.00 | 0.00 | 50 | 1004.4 |
| 20260505062522 | 45 | 306 | 0.0 | 1.0 | 0.00 | 0.00 | 0.00 | 50 | 1004.3 |
| 20260505062020 | 45 | 306 | 1.0 | 2.0 | 0.00 | 0.00 | 0.00 | 50 | 1004.3 |
| 20260505061518 | 45 | 0.0 | 0.0 | 0.00 | 0.00 | 0.00 | 50 | 1004.4 | |
| 20260505061016 | 45 | 307 | 0.0 | 1.0 | 0.00 | 0.00 | 0.00 | 50 | 1004.4 |
| 20260505060534 | 45 | 0.0 | 0.0 | 0.00 | 0.00 | 0.00 | 50 | 1004.5 | |
| 20260505060032 | 45 | 307 | 0.0 | 1.0 | 0.00 | 0.00 | 0.00 | 50 | 1004.4 |
| 20260505055530 | 46 | 306 | 1.0 | 3.0 | 0.00 | 0.00 | 0.00 | 50 | 1004.5 |
| 20260505055028 | 46 | 307 | 0.0 | 1.0 | 0.00 | 0.00 | 0.00 | 49 | 1004.5 |
| 20260505054527 | 46 | 307 | 0.0 | 1.0 | 0.00 | 0.00 | 0.00 | 49 | 1004.4 |
| 20260505054025 | 46 | 307 | 0.0 | 1.0 | 0.00 | 0.00 | 0.00 | 49 | 1004.4 |
| 20260505053523 | 47 | 307 | 1.0 | 2.0 | 0.00 | 0.00 | 0.00 | 49 | 1004.3 |
| 20260505053022 | 47 | 307 | 1.0 | 2.0 | 0.00 | 0.00 | 0.00 | 49 | 1004.3 |
| 20260505052540 | 47 | 307 | 1.0 | 3.0 | 0.00 | 0.00 | 0.00 | 48 | 1004.1 |
| 20260505052018 | 47 | 305 | 1.0 | 2.0 | 0.00 | 0.00 | 0.00 | 48 | 1004.1 |
| 20260505051517 | 47 | 300 | 1.0 | 6.0 | 0.00 | 0.00 | 0.00 | 47 | 1004.1 |
| 20260505051034 | 48 | 289 | 2.0 | 8.0 | 0.00 | 0.00 | 0.00 | 47 | 1004.0 |
| 20260505050532 | 48 | 299 | 2.0 | 8.0 | 0.00 | 0.00 | 0.00 | 47 | 1003.9 |